C/2007 Y1 (LINEAR)

Epoch 2008 Apr. 4.0 TT = JDT 2454560.5  

T 2008 Mar. 19.33929 TT                                 Nakano

q   3.3409128            (2000.0)            P               Q

z  -0.0002349      Peri.  357.12913     -0.69492531     +0.21738603

 +/-0.0000187      Node   133.09149     +0.67703312     -0.12338073

e   1.0007847      Incl.  110.17993     +0.24229108     +0.96825643

From 201 observations 2007 Dec. 16-2008 May 3, mean residual 0".71.

   (1/a)org.= +0.000011, (1/a)fut.= +0.000261 (+/-0.000019), Q= 6.

Residuals in seconds of arc 

2007/                     080110 349  1.3+  0.6-    080211 704  0.3+  0.5+  

071216 704  0.8+  0.6-    080110 349  1.3+  0.3-    080211 704  0.1+  0.3+  

071216 704  0.9+  0.2+    080110 349  1.3+  0.3-    080211 704  0.1+  0.1+  

071216 704  0.4-  1.1+    080111 673  0.2+  1.3+    080211 704  0.4+  0.2+  

071216 704  0.9+  0.7-    080111 673  0.3+  0.8+    080211 704  0.3-  0.3+  

071216 704  0.6-  0.4+    080111 704  1.4+  0.0     080212 585  0.1-  0.3+  

071217 461  0.0   0.3+    080111 704  1.6+  0.0     080212 585  0.5+  0.1+  

071217 461  0.1-  0.4+    080111 704  1.2+  1.1-    080212 585  0.7-  0.3-  

071217 461  0.7+  1.0+    080111 704  1.2+  0.8-    080212 585  0.1-  0.0   

071217 461  0.7+  0.3+    080111 704  0.8+  0.3-    080212 585  0.3-  0.6+  

071217 H06  0.5+  0.2+    080111 423  0.0   0.5+    080212 585 (2.7+  2.1-) 

071217 H06  0.1-  0.2-    080111 423  1.1-  0.8+    080212 235  0.5-  0.2+  

071218 704  1.8+  0.3-    080112 704  0.6+  0.3+    080214 355  0.3-  0.4+  

071218 711  0.1-  0.3+    080112 704  0.1+  0.5+    080214 355  0.9+  0.8-  

071218 704  0.4-  0.3-    080112 704  0.1-  0.2+    080214 355  0.8+  0.9-  

071218 704  0.3+  0.4-    080112 704  0.3-  0.2+    080214 355  0.1-  0.1-  

071218 711  0.3+  0.1+    080115 423  0.3-  0.4-    080216 349  0.2+  0.2-  

071218 H06  0.8-  0.5-    080115 423  0.1-  0.5-    080216 349  0.5+  0.3-  

071218 704  0.1+  0.2+    080116 B49  0.6+  0.3+    080216 349  0.3+  0.2-  

071218 H06  0.2+  0.4+    080118 703  1.2-  0.5-    080224 204  0.5-  0.3+  

071218 711  0.6+  0.1+    080118 703  0.7-  0.0     080224 204  0.5-  0.6+  

071218 704  0.6+  0.6-    080118 703  1.4-  0.3-    080225 704  0.4-  1.3-  

071218 704  0.4+  0.3-    080118 703  1.3-  0.8-    080225 704  0.2-  0.2-  

071218 704  0.5-  1.2-    080119 213  0.6+  0.4+    080225 704  0.2-  0.8-  

071218 704  0.2+  0.4-    080119 213  0.5+  0.6+    080225 585  0.0   1.5+  

071218 349  0.2-  0.4-    080119 213  0.2+  0.1+    080225 585  0.5-  1.3+  

071218 349  0.4-  0.2-    080119 J40  1.5-  1.3-    080225 585  0.6-  1.9+  

071219 204  0.1-  0.0     080119 J40 (1.5-  2.2-)   080226 585  1.6-  0.4-  

071219 204  0.0   0.2+    080119 J40  1.9-  1.5-    080226 585  0.2+  0.3-  

071219 703  0.2-  0.2-    080120 704  0.8+  0.3-    080226 704  0.5+  0.0   

071219 703  1.3-  0.1+    080120 704  0.7+  0.2+    080226 704  0.7+  0.4-  

071219 703  0.2+  0.3+    080120 704  0.5-  0.6+    080226 704  1.2+  0.0   

071219 703  0.9-  0.0     080120 704  0.1+  0.4-    080226 704  0.8+  0.4-  

071225 213  0.4+  0.2-    080126 467  0.0   0.5+    080228 900 (1.6-  3.4-) 

071225 J47  0.8+  0.2+    080126 467  1.9-  0.8+    080228 900  0.4+  1.3+  

071225 J47  0.5+  0.1+    080126 467  0.1+  1.0+    080229 G96  0.2-  1.4-  

071225 J47  0.1-  0.2-    080126 349  0.2-  0.6-    080229 G96  0.1-  1.6-  

071225 213  0.1-  0.1+    080126 349  0.1+  0.3-    080229 G96  0.0   1.3-  

071225 213  0.2+  0.7+    080126 349  0.2-  0.8-    080229 G96  0.1-  0.6-  

071228 423  0.8-  0.4+    080129 204  0.3-  0.4+    080301 704  1.2+  0.5-  

071228 423  0.3+  0.4+    080129 204  0.0   0.1+    080301 704  1.6+  0.9+  

071229 423  0.1+  0.9+    080202 703  0.3-  1.5-    080301 704  0.2+  0.9+  

071229 423  0.1+  0.6+    080202 703  0.5-  1.7-    080301 704  0.2+  0.1-  

071230 355  0.4+  0.1+    080202 703  0.8-  1.5-    080301 704  0.1+  0.2-  

071230 355  0.1-  0.3+    080202 703  0.3-  1.5-    080302 349  1.1+  0.5-  

071230 355  0.0   1.0-    080202 215  0.3-  0.2+    080302 349  0.9+  0.8-  

071231 204  0.3-  0.1+    080202 215  0.4-  0.1+    080302 349  1.3+  0.9-  

071231 204  0.2+  0.6+    080202 215  0.5-  0.0     080302 A41  0.1-  1.5+  

071231 415  0.4+  0.4+    080204 585 (2.9+  1.5-)   080302 A41  0.3-  0.6+  

2008/                     080204 585  0.1+  0.3+    080310 704  0.8-  0.7+  

080102 349  0.1-  0.0     080204 585  0.2-  1.8-    080310 704  0.6+  0.4-  

080102 349  0.1-  0.1+    080204 585  1.4+  1.9-    080310 704  1.3+  0.9+  

080102 349  0.2-  0.0     080206 400  0.6-  0.6+    080310 704  0.8+  1.4-  

080103 585  1.2-  1.3+    080206 400  0.5-  0.6+    080310 704  0.5+  0.8-  

080103 585 (0.2-  2.7-)   080206 400  0.4-  0.4+    080323 204  0.9-  1.4+  

080103 585  1.4-  1.3-    080208 147  0.3-  0.2+    080324 204  0.5-  0.7+  

080103 585 (2.0+  0.6-)   080208 147  0.5-  0.2+    080324 900  1.7-  0.7+  

080103 585  1.4-  0.4-    080208 147  0.3-  0.6+    080324 900  0.1+  1.1+  

080105 585  0.1+  0.8+    080209 703  0.1-  1.8-    080328 704  0.9+  1.0-  

080105 585  1.4+  0.6-    080209 703  0.6-  0.0     080328 704  1.3+  0.5-  

080105 585  1.3+  0.1+    080209 703  0.0   0.2-    080328 704  1.1+  0.2+  

080105 585  1.2-  0.6+    080210 151  0.4-  0.3+    080328 704  0.1+  0.2+  

080105 585  0.7-  1.2+    080210 151  0.2-  0.1+    080407 704  0.8-  0.5+  

080105 585  0.6+  0.1-    080210 151  0.1-  0.1-    080407 704  0.3+  0.6+  

080105 900 (3.0-  5.1+)   080210 151  0.5-  0.2+    080407 704  0.2-  0.6+  

080105 900 (3.1-  2.8+)   080210 151  0.8-  0.6+    080407 704  0.5-  0.5+  

080105 900 (5.6-  4.0+)   080210 151  0.9-  0.1+    080407 704  0.7-  0.9+  

080106 423  1.7-  0.4+    080210 130  0.3-  0.5+    080503 215  0.7+  0.4-  

080106 423  0.6-  1.0+    080210 130  0.4+  0.5+    080503 215  0.2+  0.4-  

080110 423  0.1-  1.3-    080210 130  0.6-  0.1+    080503 215  0.6-  0.5-  

080110 423  0.3-  1.4+    080210 130  0.4-  0.1+                            



NAKANO

         **** Don't distribute anyone except personal use only ****

                (C) Copyright 2008 OAA/ComputingSection

write mail from CFAD0::NAKANO on 2008-08-02 06:17:22(JST).

 



    C/2007 Y1 (LINEAR)

Epoch 2008 Apr. 4.0 TT = JDT 2454560.5  

T 2008 Mar. 19.34036 TT                                 Nakano

q   3.3409398            (2000.0)            P               Q

z  -0.0002600      Peri.  357.12934     -0.69492232     +0.21739974

 +/-0.0000463      Node   133.09127     +0.67703455     -0.12337313

e   1.0008687      Incl.  110.18078     +0.24229565     +0.96825432

From 182 observations 2007 Dec. 16-2008 Mar. 24, mean residual 0".70.

   (1/a)org.= -0.000014, (1/a)fut.= +0.000236 (+/-0.000046), Q= 6.



NAKANO

         **** Don't distribute anyone except personal use only ****

                (C) Copyright 2008 OAA/ComputingSection

write mail from CFAD0::NAKANO on 2008-03-30 06:44:05(JST).

 

    C/2007 Y1 (LINEAR)

T 2008 Mar. 19.32951 TT                                 Nakano

q   3.3407284            (2000.0)            P               Q

                   Peri.  357.12681     -0.69495033     +0.21726094

                   Node   133.09314     +0.67702450     -0.12344172

e   1.0            Incl.  110.17247     +0.24224339     +0.96827673

From 130 observations 2007 Dec. 16-2008 Feb. 10.



NAKANO

         **** Don't distribute anyone except personal use only ****

                (C) Copyright 2008 OAA/ComputingSection

write mail from CFAD0::NAKANO on 2008-02-15 03:48:21(JST).

 



◎C/2007 Y1の軌道と予報位置



 今年に入って,上尾の門田健一氏,守山の井狩康一氏によって観測されています.

CCD全光度は,12月30日に18.0等(浅見敦夫;秦野),1月2日に17.9等,10日に

17.8等(門田)でした.



    C/2007 Y1 (LINEAR)

T 2008 Mar. 19.15070 TT                                 Nakano

q   3.3413666            (2000.0)            P               Q

                   Peri.  357.08276     -0.69513101     +0.21671205

                   Node   133.09429     +0.67710695     -0.12292692

e   1.0            Incl.  110.17171     +0.24149339     +0.96846521

From 80 observations 2007 Dec. 16-2008 Jan. 12.

 

Date/        TT  R.A.(2000) Decl.     Delta   r     Daily motion  Mag.  Moon Age

              h    h  m       。  ,                      ,  / PA 。  m1      。

2008 Jan. 20 18  09 27.47  -06 40.2   2.519  3.386    30.8 / 313  17.5   55  .96

          21 18  09 25.97  -06 19.0   2.509  3.385    31.3 / 314  17.5   42  .99

          22 18  09 24.45  -05 57.4   2.499  3.383    31.7 / 314  17.5   30 1.00

          23 18  09 22.92  -05 35.5   2.489  3.382    32.1 / 314  17.4   22  .98

          24 18  09 21.37  -05 13.3   2.480  3.380    32.6 / 314  17.4   21  .94

          25 18  09 19.80  -04 50.6   2.471  3.379    33.0 / 314  17.4   27  .88

          26 18  09 18.22  -04 27.7   2.463  3.378    33.3 / 314  17.4   37  .81

          27 18  09 16.62  -04 04.4   2.455  3.376    33.7 / 314  17.4   48  .73

          28 18  09 15.02  -03 40.8   2.448  3.375    34.0 / 315  17.4   60  .64

          29 18  09 13.40  -03 16.9   2.442  3.374    34.4 / 315  17.4   72  .54

          30 18  09 11.77  -02 52.7   2.435  3.372    34.7 / 315  17.4   83  .45

          31 18  09 10.13  -02 28.3   2.430  3.371    35.0 / 315  17.4   95  .36

     Feb.  1 18  09 08.48  -02 03.5   2.424  3.370    35.2 / 315  17.4  107  .27

           2 18  09 06.82  -01 38.6   2.420  3.369    35.4 / 315  17.4  119  .19

           3 18  09 05.16  -01 13.4   2.415  3.367    35.6 / 315  17.4  131  .12

           4 18  09 03.50  -00 48.0   2.412  3.366    35.8 / 316  17.4  142  .06

           5 18  09 01.83  -00 22.3   2.409  3.365    36.0 / 316  17.4  153  .02

           6 18  09 00.15  +00 03.5   2.406  3.364    36.1 / 316  17.4  162  .00

           7 18  08 58.48  +00 29.4   2.404  3.363    36.2 / 316  17.4  162  .00

           8 18  08 56.81  +00 55.5   2.402  3.362    36.3 / 316  17.4  153  .03

